Location: Recife
(8.0585°S, 34.8848°W)
Time: 13:41:17
(UTC-03:00)

Tiros 1 despin weight - Pass Details

Date: 16 April 2026
Orbit: 555 x 591 km, 48.2° (Epoch: 14 May)

Event Time Altitude Azimuth Distance (km) Brightness Sun altitude
Rises 11:29:26 0° 208° (SSW) 2,736 ? 71.5°
Reaches altitude 10° 11:31:49 10° 200° (SSW) 1,837 ? 71.4°
Maximum altitude 11:35:43 38° 131° (SE) 860 ? 71.2°
Drops below altitude 10° 11:39:36 10° 62° (ENE) 1,827 ? 71.0°
Sets 11:41:57 0° 54° (NE) 2,720 ? 70.8°
